STARLINK-11683, 64239

Orbit data source: Space-Track

STARLINK-11683, 64239 is a payload satellite owned by SpaceX/Seattle (US) in LEO that was launched on Tue, 03 Jun 2025 UTC via an FALCON 9 launch vehicle from the Air Force Eastern Test Range (AFETR). Payload-class satellites include a variety of spacecraft equipped with specific instruments for various scientific and technological missions. These include communications satellites like Starlink; space stations such as the ISS; scientific satellites like the Hubble; Earth observation satellites from companies like Planet Labs, Umbra, and HawkEye 360; GPS; miniature CubeSats for education and research; and military/defense satellites.

Loading next visibility...
Identifier
64239, 2025-119G
Orbit
LEO
Country
Flag of USUS
Related business
Manufacturer
SpaceX/Seattle
Mission
Operational Commercial Communications
Bus & Motor
STARLINK V2MD, Unknown motor
Mass
960 kg wet, ~910 kg dry
Launch date (UTC)
2025-06-03 (1 year ago)
Launch vehicle
FALCON 9
Launch site
Air Force Eastern Test Range (AFETR)
Object type
Payload
Rocket body
Debris
Shape & HBR
Box + 2 Pan, 18.1 m
Radar Cross Section
36.964 m², Large (>1 m²)

Expand to show TLE details & history
Last TLE update: 1 day ago

TLE from 1 day ago
0 STARLINK-11683
1 64239U 25119G   26170.45738428  .00235057  00000-0  17830-2 0  9992
2 64239  43.0002 315.3780 0004368 292.3950  67.6455 15.70847696 61253
Epoch: 2026-06-19T10:58Z
TLE epoch observation values (Epoch: 2026-06-19T10:58:38.001Z)
Latitude
-0.00001°
Longitude
-116.96643°
Altitude
355.127 km
Speed
7.699 km/s
True Right ascension
21h 01m 30s
True Declination
0° 00' 00"
Sunlit
Object was in full shadow at epoch
Visualization orbit readout
Latitude
Unknown
Longitude
Unknown
Altitude
Unknown
Speed
Unknown
Apparent Right ascension
Unknown
Apparent Declination
Unknown
Sunlit
N/A
Visualization observer readout
Local Sidereal Time
08:33:00
Azimuth
Unknown
Elevation
Unknown
Doppler factor
Unknown
Orbital elements
Apogee altitude
361.397 km
Perigee altitude
355.512 km
Semi-major axis
6,736.592 km
Eccentricity
0.00044
Inclination
43.0002°
RAAN
315.378°
Arg. of periapsis
292.395°
True anomaly
67.6918°
Mean anomaly
67.6455°
Eccentric anomaly
67.66865°
Mean motion
3.92539 °/min
Orbital period
91.71 mins
BSTAR
0.001783
Loading maneuver chart data...
Computing Atmospheric mass density...
Loading historical data...
Loading historical data...
Loading historical data...
Loading historical data...
Loading historical data...
Loading historical data...
Loading historical data...

Documentation

Showing up to 5 results
|